DELTA 1 DEB, 3123

Orbit data source: Space-Track

DELTA 1 DEB, 3123 is space debris in SSO originally from a launch on Fri, 10 Nov 1967 UTC launched from the Air Force Western Test Range (AFWTR). Debris objects in space refer to the collection of defunct objects orbiting the Earth. Examples of debris include non-operational satellites, rocket bodies, and fragments generated from explosions, collisions, or faulty payload assembly.

Loading next visibility...
Identifier
3123, 1967-114D
Orbit
SSO
Country
Flag of USUS
Related business
Manufacturer
Unknown
Mission
Spacecraft
Bus & Motor
Unknown
Mass
Unknown
Launch date (UTC)
1967-11-10 (59 years ago)
Launch vehicle
Unknown
Launch site
Air Force Western Test Range (AFWTR)
Object type
Payload
Rocket body
Debris
Shape & HBR
Unknown shape, 0.1 m
Radar Cross Section
Medium (>0.1 m² and <1 m²)

Expand to show TLE details & history
Last TLE update: 6 days ago

TLE from 6 days ago
0 DELTA 1 DEB
1 03123U 67114D   26153.22731663 -.00000035  00000-0  90617-4 0  9991
2 03123 102.4746 287.5608 0027987 288.5428 190.7293 12.48106511666896
Epoch: 2026-06-02T05:27Z
TLE epoch observation values (Epoch: 2026-06-02T05:27:20.156Z)
Latitude
58.54569°
Longitude
156.11717°
Altitude
1,503.686 km
Speed
7.108 km/s
True Right ascension
08h 34m 37s
True Declination
58° 24' 25"
Sunlit
Object was in daylight at epoch
Visualization orbit readout
Latitude
Unknown
Longitude
Unknown
Altitude
Unknown
Speed
Unknown
Apparent Right ascension
Unknown
Apparent Declination
Unknown
Sunlit
N/A
Visualization observer readout
Local Sidereal Time
11:51:04
Azimuth
Unknown
Elevation
Unknown
Doppler factor
Unknown
Orbital elements
Apogee altitude
1,491.983 km
Perigee altitude
1,448.053 km
Semi-major axis
7,848.155 km
Eccentricity
0.0028
Inclination
102.4746°
RAAN
287.5608°
Arg. of periapsis
288.5428°
True anomaly
190.6698°
Mean anomaly
190.7293°
Eccentric anomaly
190.69953°
Mean motion
3.1217 °/min
Orbital period
115.32 mins
BSTAR
0.000090617
Loading maneuver chart data...
Computing Atmospheric mass density...
Loading historical data...
Loading historical data...
Loading historical data...
Loading historical data...
Loading historical data...
Loading historical data...
Loading historical data...
Other satellites on launch #114 in the year 1967 (1967-11-10 UTC)

Documentation

Showing up to 5 results
|